Year,Month,Day,Hour,Minute,Value (Times are PST for temperature in C)
2011,01,12,00,00,0.50
2011,01,12,00,01,0.50
2011,01,12,00,02,0.50
2011,01,12,00,03,0.50
2011,01,12,00,04,0.50
2011,01,12,00,05,0.50
2011,01,12,00,06,0.50
2011,01,12,00,07,0.50
2011,01,12,00,08,0.50
2011,01,12,00,09,0.50
2011,01,12,00,10,0.50
2011,01,12,00,11,0.50
2011,01,12,00,12,0.50
2011,01,12,00,13,0.50
2011,01,12,00,14,0.50
2011,01,12,00,15,0.50
2011,01,12,00,16,0.50
2011,01,12,00,17,0.50
2011,01,12,00,18,0.50
2011,01,12,00,19,0.50
2011,01,12,00,20,0.50
2011,01,12,00,21,0.50
2011,01,12,00,22,0.50
2011,01,12,00,23,0.50
2011,01,12,00,24,0.50
2011,01,12,00,25,0.60
2011,01,12,00,26,0.60
2011,01,12,00,27,0.60
2011,01,12,00,28,0.60
2011,01,12,00,29,0.60
2011,01,12,00,30,0.60
2011,01,12,00,31,0.60
2011,01,12,00,32,0.70
2011,01,12,00,33,0.70
2011,01,12,00,34,0.80
2011,01,12,00,35,0.80
2011,01,12,00,36,0.80
2011,01,12,00,37,0.80
2011,01,12,00,38,0.80
2011,01,12,00,39,0.80
2011,01,12,00,40,0.80
2011,01,12,00,41,0.80
2011,01,12,00,42,0.80
2011,01,12,00,43,0.90
2011,01,12,00,44,0.90
2011,01,12,00,45,0.90
2011,01,12,00,46,0.90
2011,01,12,00,47,0.90
2011,01,12,00,48,1.00
2011,01,12,00,49,1.10
2011,01,12,00,50,1.10
2011,01,12,00,51,1.10
2011,01,12,00,52,1.10
2011,01,12,00,53,1.10
2011,01,12,00,54,1.20
2011,01,12,00,55,1.20
2011,01,12,00,56,1.30
2011,01,12,00,57,1.30
2011,01,12,00,58,1.30
2011,01,12,00,59,1.30
2011,01,12,01,00,1.30
2011,01,12,01,01,1.30
2011,01,12,01,02,1.30
2011,01,12,01,03,1.30
2011,01,12,01,04,1.30
2011,01,12,01,05,1.30
2011,01,12,01,06,1.40
2011,01,12,01,07,1.50
2011,01,12,01,08,1.60
2011,01,12,01,09,1.60
2011,01,12,01,10,1.60
2011,01,12,01,11,1.70
2011,01,12,01,12,1.70
2011,01,12,01,13,1.70
2011,01,12,01,14,1.70
2011,01,12,01,15,1.80
2011,01,12,01,16,1.80
2011,01,12,01,17,1.90
2011,01,12,01,18,2.00
2011,01,12,01,19,2.00
2011,01,12,01,20,2.00
2011,01,12,01,21,2.10
2011,01,12,01,22,2.10
2011,01,12,01,23,2.10
2011,01,12,01,24,2.10
2011,01,12,01,25,2.20
2011,01,12,01,26,2.20
2011,01,12,01,27,2.20
2011,01,12,01,28,2.20
2011,01,12,01,29,2.20
2011,01,12,01,30,2.20
2011,01,12,01,31,2.20
2011,01,12,01,32,2.20
2011,01,12,01,33,2.20
2011,01,12,01,34,2.20
2011,01,12,01,35,2.20
2011,01,12,01,36,2.20
2011,01,12,01,37,2.20
2011,01,12,01,38,2.20
2011,01,12,01,39,2.20
2011,01,12,01,40,2.20
2011,01,12,01,41,2.20
2011,01,12,01,42,2.20
2011,01,12,01,43,2.30
2011,01,12,01,44,2.30
2011,01,12,01,45,2.30
2011,01,12,01,46,2.40
2011,01,12,01,47,2.40
2011,01,12,01,48,2.40
2011,01,12,01,49,2.40
2011,01,12,01,50,2.40
2011,01,12,01,51,2.40
2011,01,12,01,52,2.40
2011,01,12,01,53,2.50
2011,01,12,01,54,2.50
2011,01,12,01,55,2.50
2011,01,12,01,56,2.50
2011,01,12,01,57,2.50
2011,01,12,01,58,2.60
2011,01,12,01,59,2.60
2011,01,12,02,00,2.60
2011,01,12,02,01,2.70
2011,01,12,02,02,2.70
2011,01,12,02,03,2.70
2011,01,12,02,04,2.70
2011,01,12,02,05,2.70
2011,01,12,02,06,2.70
2011,01,12,02,07,2.70
2011,01,12,02,08,2.70
2011,01,12,02,09,2.70
2011,01,12,02,10,2.70
2011,01,12,02,11,2.70
2011,01,12,02,12,2.70
2011,01,12,02,13,2.70
2011,01,12,02,14,2.70
2011,01,12,02,15,2.70
2011,01,12,02,16,2.70
2011,01,12,02,17,2.70
2011,01,12,02,18,2.70
2011,01,12,02,19,2.70
2011,01,12,02,20,2.70
2011,01,12,02,21,2.70
2011,01,12,02,22,2.70
2011,01,12,02,23,2.70
2011,01,12,02,24,2.70
2011,01,12,02,25,2.70
2011,01,12,02,26,2.70
2011,01,12,02,27,2.70
2011,01,12,02,28,2.70
2011,01,12,02,29,2.70
2011,01,12,02,30,2.70
2011,01,12,02,31,2.70
2011,01,12,02,32,2.70
2011,01,12,02,33,2.70
2011,01,12,02,34,2.70
2011,01,12,02,35,2.70
2011,01,12,02,36,2.70
2011,01,12,02,37,2.70
2011,01,12,02,38,2.70
2011,01,12,02,39,2.80
2011,01,12,02,40,2.80
2011,01,12,02,41,2.80
2011,01,12,02,42,2.80
2011,01,12,02,43,2.80
2011,01,12,02,44,2.80
2011,01,12,02,45,2.80
2011,01,12,02,46,2.80
2011,01,12,02,47,2.80
2011,01,12,02,48,2.80
2011,01,12,02,49,2.80
2011,01,12,02,50,2.90
2011,01,12,02,51,2.80
2011,01,12,02,52,2.80
2011,01,12,02,53,2.90
2011,01,12,02,54,2.90
2011,01,12,02,55,2.90
2011,01,12,02,56,2.90
2011,01,12,02,57,2.80
2011,01,12,02,58,2.80
2011,01,12,02,59,2.80
2011,01,12,03,00,2.90
2011,01,12,03,01,2.90
2011,01,12,03,02,2.90
2011,01,12,03,03,2.90
2011,01,12,03,04,2.90
2011,01,12,03,05,2.90
2011,01,12,03,06,2.90
2011,01,12,03,07,2.90
2011,01,12,03,08,2.90
2011,01,12,03,09,2.90
2011,01,12,03,10,3.00
2011,01,12,03,11,3.10
2011,01,12,03,12,3.00
2011,01,12,03,13,3.10
2011,01,12,03,14,3.10
2011,01,12,03,15,3.10
2011,01,12,03,16,3.10
2011,01,12,03,17,3.10
2011,01,12,03,18,3.10
2011,01,12,03,19,3.10
2011,01,12,03,20,3.10
2011,01,12,03,21,3.10
2011,01,12,03,22,3.10
2011,01,12,03,23,3.10
2011,01,12,03,24,3.10
2011,01,12,03,25,3.10
2011,01,12,03,26,3.10
2011,01,12,03,27,3.10
2011,01,12,03,28,3.10
2011,01,12,03,29,3.10
2011,01,12,03,30,3.10
2011,01,12,03,31,3.20
2011,01,12,03,32,3.20
2011,01,12,03,33,3.20
2011,01,12,03,34,3.20
2011,01,12,03,35,3.10
2011,01,12,03,36,3.20
2011,01,12,03,37,3.20
2011,01,12,03,38,3.20
2011,01,12,03,39,3.20
2011,01,12,03,40,3.20
2011,01,12,03,41,3.20
2011,01,12,03,42,3.20
2011,01,12,03,43,3.20
2011,01,12,03,44,3.10
2011,01,12,03,45,3.10
2011,01,12,03,46,3.10
2011,01,12,03,47,3.10
2011,01,12,03,48,3.10
2011,01,12,03,49,3.10
2011,01,12,03,50,3.20
2011,01,12,03,51,3.20
2011,01,12,03,52,3.20
2011,01,12,03,53,3.20
2011,01,12,03,54,3.20
2011,01,12,03,55,3.20
2011,01,12,03,56,3.20
2011,01,12,03,57,3.30
2011,01,12,03,58,3.30
2011,01,12,03,59,3.30
2011,01,12,04,00,3.30
2011,01,12,04,01,3.30
2011,01,12,04,02,3.30
2011,01,12,04,03,3.30
2011,01,12,04,04,3.30
2011,01,12,04,05,3.30
2011,01,12,04,06,3.30
2011,01,12,04,07,3.30
2011,01,12,04,08,3.20
2011,01,12,04,09,3.20
2011,01,12,04,10,3.20
2011,01,12,04,11,3.20
2011,01,12,04,12,3.30
2011,01,12,04,13,3.30
2011,01,12,04,14,3.30
2011,01,12,04,15,3.20
2011,01,12,04,16,3.30
2011,01,12,04,17,3.30
2011,01,12,04,18,3.30
2011,01,12,04,19,3.30
2011,01,12,04,20,3.30
2011,01,12,04,21,3.30
2011,01,12,04,22,3.30
2011,01,12,04,23,3.30
2011,01,12,04,24,3.30
2011,01,12,04,25,3.30
2011,01,12,04,26,3.30
2011,01,12,04,27,3.30
2011,01,12,04,28,3.30
2011,01,12,04,29,3.30
2011,01,12,04,30,3.30
2011,01,12,04,31,3.30
2011,01,12,04,32,3.40
2011,01,12,04,33,3.40
2011,01,12,04,34,3.40
2011,01,12,04,35,3.40
2011,01,12,04,36,3.50
2011,01,12,04,37,3.50
2011,01,12,04,38,3.50
2011,01,12,04,39,3.50
2011,01,12,04,40,3.50
2011,01,12,04,41,3.50
2011,01,12,04,42,3.50
2011,01,12,04,43,3.50
2011,01,12,04,44,3.60
2011,01,12,04,45,3.60
2011,01,12,04,46,3.70
2011,01,12,04,47,3.70
2011,01,12,04,48,3.70
2011,01,12,04,49,3.70
2011,01,12,04,50,3.60
2011,01,12,04,51,3.60
2011,01,12,04,52,3.60
2011,01,12,04,53,3.70
2011,01,12,04,54,3.70
2011,01,12,04,55,3.70
2011,01,12,04,56,3.70
2011,01,12,04,57,3.60
2011,01,12,04,58,3.70
2011,01,12,04,59,3.70
2011,01,12,05,00,3.70
2011,01,12,05,01,3.70
2011,01,12,05,02,3.70
2011,01,12,05,03,3.70
2011,01,12,05,04,3.70
2011,01,12,05,05,3.70
2011,01,12,05,06,3.80
2011,01,12,05,07,3.80
2011,01,12,05,08,3.80
2011,01,12,05,09,3.80
2011,01,12,05,10,3.80
2011,01,12,05,11,3.80
2011,01,12,05,12,3.80
2011,01,12,05,13,3.80
2011,01,12,05,14,3.80
2011,01,12,05,15,3.80
2011,01,12,05,16,3.80
2011,01,12,05,17,3.80
2011,01,12,05,18,3.90
2011,01,12,05,19,3.90
2011,01,12,05,20,3.90
2011,01,12,05,21,3.90
2011,01,12,05,22,3.90
2011,01,12,05,23,4.00
2011,01,12,05,24,4.00
2011,01,12,05,25,4.00
2011,01,12,05,26,4.00
2011,01,12,05,27,4.00
2011,01,12,05,28,4.10
2011,01,12,05,29,4.10
2011,01,12,05,30,4.10
2011,01,12,05,31,4.00
2011,01,12,05,32,4.00
2011,01,12,05,33,4.00
2011,01,12,05,34,4.00
2011,01,12,05,35,4.00
2011,01,12,05,36,4.10
2011,01,12,05,37,4.00
2011,01,12,05,38,4.00
2011,01,12,05,39,4.10
2011,01,12,05,40,4.00
2011,01,12,05,41,4.00
2011,01,12,05,42,4.10
2011,01,12,05,43,4.10
2011,01,12,05,44,4.10
2011,01,12,05,45,4.10
2011,01,12,05,46,4.10
2011,01,12,05,47,4.10
2011,01,12,05,48,4.10
2011,01,12,05,49,4.10
2011,01,12,05,50,4.10
2011,01,12,05,51,4.20
2011,01,12,05,52,4.20
2011,01,12,05,53,4.20
2011,01,12,05,54,4.20
2011,01,12,05,55,4.20
2011,01,12,05,56,4.20
2011,01,12,05,57,4.20
2011,01,12,05,58,4.20
2011,01,12,05,59,4.20
2011,01,12,06,00,4.20
2011,01,12,06,01,4.20
2011,01,12,06,02,4.20
2011,01,12,06,03,4.20
2011,01,12,06,04,4.20
2011,01,12,06,05,4.20
2011,01,12,06,06,4.20
2011,01,12,06,07,4.20
2011,01,12,06,08,4.20
2011,01,12,06,09,4.20
2011,01,12,06,10,4.20
2011,01,12,06,11,4.20
2011,01,12,06,12,4.20
2011,01,12,06,13,4.20
2011,01,12,06,14,4.20
2011,01,12,06,15,4.20
2011,01,12,06,16,4.20
2011,01,12,06,17,4.20
2011,01,12,06,18,4.20
2011,01,12,06,19,4.20
2011,01,12,06,20,4.20
2011,01,12,06,21,4.20
2011,01,12,06,22,4.20
2011,01,12,06,23,4.20
2011,01,12,06,24,4.20
2011,01,12,06,25,4.20
2011,01,12,06,26,4.20
2011,01,12,06,27,4.20
2011,01,12,06,28,4.20
2011,01,12,06,29,4.20
2011,01,12,06,30,4.20
2011,01,12,06,31,4.20
2011,01,12,06,32,4.20
2011,01,12,06,33,4.20
2011,01,12,06,34,4.20
2011,01,12,06,35,4.30
2011,01,12,06,36,4.30
2011,01,12,06,37,4.30
2011,01,12,06,38,4.30
2011,01,12,06,39,4.30
2011,01,12,06,40,4.30
2011,01,12,06,41,4.30
2011,01,12,06,42,4.40
2011,01,12,06,43,4.40
2011,01,12,06,44,4.40
2011,01,12,06,45,4.40
2011,01,12,06,46,4.50
2011,01,12,06,47,4.50
2011,01,12,06,48,4.50
2011,01,12,06,49,4.50
2011,01,12,06,50,4.50
2011,01,12,06,51,4.50
2011,01,12,06,52,4.60
2011,01,12,06,53,4.50
2011,01,12,06,54,4.50
2011,01,12,06,55,4.50
2011,01,12,06,56,4.50
2011,01,12,06,57,4.50
2011,01,12,06,58,4.50
2011,01,12,06,59,4.50
2011,01,12,07,00,4.50
2011,01,12,07,01,4.50
2011,01,12,07,02,4.50
2011,01,12,07,03,4.50
2011,01,12,07,04,4.40
2011,01,12,07,05,4.40
2011,01,12,07,06,4.40
2011,01,12,07,07,4.40
2011,01,12,07,08,4.40
2011,01,12,07,09,4.30
2011,01,12,07,10,4.30
2011,01,12,07,11,4.30
2011,01,12,07,12,4.30
2011,01,12,07,13,4.30
2011,01,12,07,14,4.30
2011,01,12,07,15,4.30
2011,01,12,07,16,4.30
2011,01,12,07,17,4.30
2011,01,12,07,18,4.20
2011,01,12,07,19,4.20
2011,01,12,07,20,4.20
2011,01,12,07,21,4.20
2011,01,12,07,22,4.20
2011,01,12,07,23,4.20
2011,01,12,07,24,4.20
2011,01,12,07,25,4.20
2011,01,12,07,26,4.20
2011,01,12,07,27,4.20
2011,01,12,07,28,4.20
2011,01,12,07,29,4.20
2011,01,12,07,30,4.20
2011,01,12,07,31,4.20
2011,01,12,07,32,4.20
2011,01,12,07,33,4.20
2011,01,12,07,34,4.20
2011,01,12,07,35,4.20
2011,01,12,07,36,4.20
2011,01,12,07,37,4.20
2011,01,12,07,38,4.20
2011,01,12,07,39,4.20
2011,01,12,07,40,4.30
2011,01,12,07,41,4.30
2011,01,12,07,42,4.40
2011,01,12,07,43,4.40
2011,01,12,07,44,4.40
2011,01,12,07,45,4.40
2011,01,12,07,46,4.40
2011,01,12,07,47,4.40
2011,01,12,07,48,4.40
2011,01,12,07,49,4.30
2011,01,12,07,50,4.30
2011,01,12,07,51,4.30
2011,01,12,07,52,4.40
2011,01,12,07,53,4.50
2011,01,12,07,54,4.50
2011,01,12,07,55,4.50
2011,01,12,07,56,4.50
2011,01,12,07,57,4.60
2011,01,12,07,58,4.60
2011,01,12,07,59,4.60
2011,01,12,08,00,4.60
2011,01,12,08,01,4.60
2011,01,12,08,02,4.60
2011,01,12,08,03,4.60
2011,01,12,08,04,4.70
2011,01,12,08,05,4.80
2011,01,12,08,06,4.90
2011,01,12,08,07,5.10
2011,01,12,08,08,5.20
2011,01,12,08,09,5.30
2011,01,12,08,10,5.30
2011,01,12,08,11,5.30
2011,01,12,08,12,5.30
2011,01,12,08,13,5.30
2011,01,12,08,14,5.30
2011,01,12,08,15,5.30
2011,01,12,08,16,5.30
2011,01,12,08,17,5.30
2011,01,12,08,18,5.40
2011,01,12,08,19,5.50
2011,01,12,08,20,5.60
2011,01,12,08,21,5.60
2011,01,12,08,22,5.60
2011,01,12,08,23,5.60
2011,01,12,08,24,5.60
2011,01,12,08,25,5.60
2011,01,12,08,26,5.70
2011,01,12,08,27,5.90
2011,01,12,08,28,6.00
2011,01,12,08,29,6.00
2011,01,12,08,30,6.00
2011,01,12,08,31,6.10
2011,01,12,08,32,6.10
2011,01,12,08,33,6.20
2011,01,12,08,34,6.20
2011,01,12,08,35,6.30
2011,01,12,08,36,6.30
2011,01,12,08,37,6.40
2011,01,12,08,38,6.40
2011,01,12,08,39,6.40
2011,01,12,08,40,6.40
2011,01,12,08,41,6.40
2011,01,12,08,42,6.50
2011,01,12,08,43,6.40
2011,01,12,08,44,6.40
2011,01,12,08,45,6.40
2011,01,12,08,46,6.40
2011,01,12,08,47,6.40
2011,01,12,08,48,6.40
2011,01,12,08,49,6.40
2011,01,12,08,50,6.40
2011,01,12,08,51,6.40
2011,01,12,08,52,6.40
2011,01,12,08,53,6.50
2011,01,12,08,54,6.60
2011,01,12,08,55,6.60
2011,01,12,08,56,6.60
2011,01,12,08,57,6.60
2011,01,12,08,58,6.60
2011,01,12,08,59,6.70
2011,01,12,09,00,6.80
2011,01,12,09,01,6.90
2011,01,12,09,02,7.10
2011,01,12,09,03,7.30
2011,01,12,09,04,7.60
2011,01,12,09,05,7.80
2011,01,12,09,06,7.90
2011,01,12,09,07,8.00
2011,01,12,09,08,8.20
2011,01,12,09,09,8.20
2011,01,12,09,10,8.20
2011,01,12,09,11,8.20
2011,01,12,09,12,8.20
2011,01,12,09,13,8.30
2011,01,12,09,14,8.30
2011,01,12,09,15,8.30
2011,01,12,09,16,8.40
2011,01,12,09,17,8.40
2011,01,12,09,18,8.40
2011,01,12,09,19,8.40
2011,01,12,09,20,8.40
2011,01,12,09,21,8.40
2011,01,12,09,22,8.50
2011,01,12,09,23,8.50
2011,01,12,09,24,8.50
2011,01,12,09,25,8.50
2011,01,12,09,26,8.40
2011,01,12,09,27,8.50
2011,01,12,09,28,8.40
2011,01,12,09,29,8.40
2011,01,12,09,30,8.50
2011,01,12,09,31,8.50
2011,01,12,09,32,8.60
2011,01,12,09,33,8.60
2011,01,12,09,34,8.70
2011,01,12,09,35,8.70
2011,01,12,09,36,8.70
2011,01,12,09,37,8.60
2011,01,12,09,38,8.60
2011,01,12,09,39,8.60
2011,01,12,09,40,8.60
2011,01,12,09,41,8.70
2011,01,12,09,42,8.70
2011,01,12,09,43,8.70
2011,01,12,09,44,8.70
2011,01,12,09,45,8.70
2011,01,12,09,46,8.70
2011,01,12,09,47,8.70
2011,01,12,09,48,8.70
2011,01,12,09,49,8.70
2011,01,12,09,50,8.70
2011,01,12,09,51,8.70
2011,01,12,09,52,8.70
2011,01,12,09,53,8.70
2011,01,12,09,54,8.70
2011,01,12,09,55,8.70
2011,01,12,09,56,8.70
2011,01,12,09,57,8.80
2011,01,12,09,58,8.80
2011,01,12,09,59,8.80
2011,01,12,10,00,8.70
2011,01,12,10,01,8.70
2011,01,12,10,02,8.70
2011,01,12,10,03,8.70
2011,01,12,10,04,8.70
2011,01,12,10,05,8.70
2011,01,12,10,06,8.70
2011,01,12,10,07,8.70
2011,01,12,10,08,8.70
2011,01,12,10,09,8.70
2011,01,12,10,10,8.80
2011,01,12,10,11,8.80
2011,01,12,10,12,8.90
2011,01,12,10,13,8.90
2011,01,12,10,14,9.00
2011,01,12,10,15,9.00
2011,01,12,10,16,9.00
2011,01,12,10,17,9.00
2011,01,12,10,18,9.10
2011,01,12,10,19,9.10
2011,01,12,10,20,9.20
2011,01,12,10,21,9.20
2011,01,12,10,22,9.20
2011,01,12,10,23,9.20
2011,01,12,10,24,9.20
2011,01,12,10,25,9.20
2011,01,12,10,26,9.20
2011,01,12,10,27,9.30
2011,01,12,10,28,9.30
2011,01,12,10,29,9.30
2011,01,12,10,30,9.30
2011,01,12,10,31,9.30
2011,01,12,10,32,9.30
2011,01,12,10,33,9.30
2011,01,12,10,34,9.30
2011,01,12,10,35,9.30
2011,01,12,10,36,9.30
2011,01,12,10,37,9.30
2011,01,12,10,38,9.30
2011,01,12,10,39,9.30
2011,01,12,10,40,9.30
2011,01,12,10,41,9.30
2011,01,12,10,42,9.30
2011,01,12,10,43,9.30
2011,01,12,10,44,9.30
2011,01,12,10,45,9.30
2011,01,12,10,46,9.30
2011,01,12,10,47,9.30
2011,01,12,10,48,9.30
2011,01,12,10,49,9.30
2011,01,12,10,50,9.30
2011,01,12,10,51,9.30
2011,01,12,10,52,9.20
2011,01,12,10,53,9.20
2011,01,12,10,54,9.20
2011,01,12,10,55,9.20
2011,01,12,10,56,9.20
2011,01,12,10,57,9.30
2011,01,12,10,58,9.30
2011,01,12,10,59,9.30
2011,01,12,11,00,9.30
2011,01,12,11,01,9.30
2011,01,12,11,02,9.30
2011,01,12,11,03,9.30
2011,01,12,11,04,9.40
2011,01,12,11,05,9.40
2011,01,12,11,06,9.40
2011,01,12,11,07,9.40
2011,01,12,11,08,9.40
2011,01,12,11,09,9.40
2011,01,12,11,10,9.40
2011,01,12,11,11,9.40
2011,01,12,11,12,9.40
2011,01,12,11,13,9.40
2011,01,12,11,14,9.40
2011,01,12,11,15,9.30
2011,01,12,11,16,9.30
2011,01,12,11,17,9.30
2011,01,12,11,18,9.30
2011,01,12,11,19,9.30
2011,01,12,11,20,9.20
2011,01,12,11,21,9.20
2011,01,12,11,22,9.20
2011,01,12,11,23,9.20
2011,01,12,11,24,9.10
2011,01,12,11,25,9.10
2011,01,12,11,26,9.00
2011,01,12,11,27,9.00
2011,01,12,11,28,9.00
2011,01,12,11,29,9.00
2011,01,12,11,30,9.00
2011,01,12,11,31,9.00
2011,01,12,11,32,9.00
2011,01,12,11,33,9.00
2011,01,12,11,34,9.00
2011,01,12,11,35,9.00
2011,01,12,11,36,9.00
2011,01,12,11,37,9.00
2011,01,12,11,38,9.00
2011,01,12,11,39,9.00
2011,01,12,11,40,8.90
2011,01,12,11,41,8.90
2011,01,12,11,42,8.90
2011,01,12,11,43,8.90
2011,01,12,11,44,8.80
2011,01,12,11,45,8.80
2011,01,12,11,46,8.70
2011,01,12,11,47,8.70
2011,01,12,11,48,8.70
2011,01,12,11,49,8.60
2011,01,12,11,50,8.60
2011,01,12,11,51,8.60
2011,01,12,11,52,8.50
2011,01,12,11,53,8.50
2011,01,12,11,54,8.50
2011,01,12,11,55,8.50
2011,01,12,11,56,8.40
2011,01,12,11,57,8.40
2011,01,12,11,58,8.40
2011,01,12,11,59,8.30
2011,01,12,12,00,8.30
2011,01,12,12,01,8.30
2011,01,12,12,02,8.20
2011,01,12,12,03,8.20
2011,01,12,12,04,8.20
2011,01,12,12,05,8.20
2011,01,12,12,06,8.20
2011,01,12,12,07,8.20
2011,01,12,12,08,8.20
2011,01,12,12,09,8.20
2011,01,12,12,10,8.20
2011,01,12,12,11,8.20
2011,01,12,12,12,8.20
2011,01,12,12,13,8.20
2011,01,12,12,14,8.20
2011,01,12,12,15,8.20
2011,01,12,12,16,8.20
2011,01,12,12,17,8.20
2011,01,12,12,18,8.20
2011,01,12,12,19,8.20
2011,01,12,12,20,8.20
2011,01,12,12,21,8.20
2011,01,12,12,22,8.20
2011,01,12,12,23,8.20
2011,01,12,12,24,8.20
2011,01,12,12,25,8.20
2011,01,12,12,26,8.20
2011,01,12,12,27,8.20
2011,01,12,12,28,8.20
2011,01,12,12,29,8.20
2011,01,12,12,30,8.20
2011,01,12,12,31,8.20
2011,01,12,12,32,8.20
2011,01,12,12,33,8.20
2011,01,12,12,34,8.20
2011,01,12,12,35,8.20
2011,01,12,12,36,8.20
2011,01,12,12,37,8.20
2011,01,12,12,38,8.20
2011,01,12,12,39,8.20
2011,01,12,12,40,8.20
2011,01,12,12,41,8.20
2011,01,12,12,42,8.20
2011,01,12,12,43,8.20
2011,01,12,12,44,8.20
2011,01,12,12,45,8.20
2011,01,12,12,46,8.30
2011,01,12,12,47,8.30
2011,01,12,12,48,8.30
2011,01,12,12,49,8.30
2011,01,12,12,50,8.30
2011,01,12,12,51,8.30
2011,01,12,12,52,8.30
2011,01,12,12,53,8.30
2011,01,12,12,54,8.30
2011,01,12,12,55,8.30
2011,01,12,12,56,8.30
2011,01,12,12,57,8.40
2011,01,12,12,58,8.40
2011,01,12,12,59,8.40
2011,01,12,13,00,8.40
2011,01,12,13,01,8.40
2011,01,12,13,02,8.40
2011,01,12,13,03,8.40
2011,01,12,13,04,8.40
2011,01,12,13,05,8.40
2011,01,12,13,06,8.40
2011,01,12,13,07,8.30
2011,01,12,13,08,8.40
2011,01,12,13,09,8.30
2011,01,12,13,10,8.30
2011,01,12,13,11,8.30
2011,01,12,13,12,8.30
2011,01,12,13,13,8.30
2011,01,12,13,14,8.30
2011,01,12,13,15,8.30
2011,01,12,13,16,8.30
2011,01,12,13,17,8.30
2011,01,12,13,18,8.40
2011,01,12,13,19,8.40
2011,01,12,13,20,8.40
2011,01,12,13,21,8.40
2011,01,12,13,22,8.50
2011,01,12,13,23,8.50
2011,01,12,13,24,8.50
2011,01,12,13,25,8.50
2011,01,12,13,26,8.50
2011,01,12,13,27,8.50
2011,01,12,13,28,8.50
2011,01,12,13,29,8.60
2011,01,12,13,30,8.60
2011,01,12,13,31,8.50
2011,01,12,13,32,8.50
2011,01,12,13,33,8.50
2011,01,12,13,34,8.50
2011,01,12,13,35,8.50
2011,01,12,13,36,8.40
2011,01,12,13,37,8.40
2011,01,12,13,38,8.40
2011,01,12,13,39,8.30
2011,01,12,13,40,8.30
2011,01,12,13,41,8.30
2011,01,12,13,42,8.20
2011,01,12,13,43,8.20
2011,01,12,13,44,8.20
2011,01,12,13,45,8.20
2011,01,12,13,46,8.20
2011,01,12,13,47,8.20
2011,01,12,13,48,8.20
2011,01,12,13,49,8.20
2011,01,12,13,50,8.10
2011,01,12,13,51,8.10
2011,01,12,13,52,8.10
2011,01,12,13,53,8.10
2011,01,12,13,54,8.10
2011,01,12,13,55,8.00
2011,01,12,13,56,8.00
2011,01,12,13,57,8.00
2011,01,12,13,58,8.00
2011,01,12,13,59,7.90
2011,01,12,14,00,7.90
2011,01,12,14,01,7.90
2011,01,12,14,02,7.90
2011,01,12,14,03,7.90
2011,01,12,14,04,7.80
2011,01,12,14,05,7.80
2011,01,12,14,06,7.80
2011,01,12,14,07,7.70
2011,01,12,14,08,7.70
2011,01,12,14,09,7.60
2011,01,12,14,10,7.60
2011,01,12,14,11,7.60
2011,01,12,14,12,7.60
2011,01,12,14,13,7.50
2011,01,12,14,14,7.50
2011,01,12,14,15,7.50
2011,01,12,14,16,7.40
2011,01,12,14,17,7.40
2011,01,12,14,18,7.30
2011,01,12,14,19,7.30
2011,01,12,14,20,7.30
2011,01,12,14,21,7.30
2011,01,12,14,22,7.30
2011,01,12,14,23,7.30
2011,01,12,14,24,7.30
2011,01,12,14,25,7.30
2011,01,12,14,26,7.30
2011,01,12,14,27,7.30
2011,01,12,14,28,7.30
2011,01,12,14,29,7.30
2011,01,12,14,30,7.30
2011,01,12,14,31,7.30
2011,01,12,14,32,7.30
2011,01,12,14,33,7.30
2011,01,12,14,34,7.30
2011,01,12,14,35,7.20
2011,01,12,14,36,7.20
2011,01,12,14,37,7.20
2011,01,12,14,38,7.20
2011,01,12,14,39,7.20
2011,01,12,14,40,7.10
2011,01,12,14,41,7.10
2011,01,12,14,42,7.10
2011,01,12,14,43,7.10
2011,01,12,14,44,7.10
2011,01,12,14,45,7.00
2011,01,12,14,46,7.00
2011,01,12,14,47,7.00
2011,01,12,14,48,7.00
2011,01,12,14,49,7.00
2011,01,12,14,50,6.90
2011,01,12,14,51,6.90
2011,01,12,14,52,6.90
2011,01,12,14,53,6.90
2011,01,12,14,54,6.90
2011,01,12,14,55,6.90
2011,01,12,14,56,6.90
2011,01,12,14,57,6.90
2011,01,12,14,58,6.90
2011,01,12,14,59,6.90
2011,01,12,15,00,6.90
2011,01,12,15,01,6.90
2011,01,12,15,02,6.90
2011,01,12,15,03,6.90
2011,01,12,15,04,6.90
2011,01,12,15,05,7.00
2011,01,12,15,06,7.00
2011,01,12,15,07,7.00
2011,01,12,15,08,7.00
2011,01,12,15,09,7.00
2011,01,12,15,10,7.00
2011,01,12,15,11,7.00
2011,01,12,15,12,7.00
2011,01,12,15,13,7.00
2011,01,12,15,14,7.00
2011,01,12,15,15,7.00
2011,01,12,15,16,7.00
2011,01,12,15,17,7.00
2011,01,12,15,18,7.00
2011,01,12,15,19,7.00
2011,01,12,15,20,7.00
2011,01,12,15,21,7.00
2011,01,12,15,22,7.00
2011,01,12,15,23,7.00
2011,01,12,15,24,7.10
2011,01,12,15,25,7.10
2011,01,12,15,26,7.10
2011,01,12,15,27,7.10
2011,01,12,15,28,7.10
2011,01,12,15,29,7.20
2011,01,12,15,30,7.20
2011,01,12,15,31,7.20
2011,01,12,15,32,7.20
2011,01,12,15,33,7.20
2011,01,12,15,34,7.20
2011,01,12,15,35,7.20
2011,01,12,15,36,7.20
2011,01,12,15,37,7.20
2011,01,12,15,38,7.20
2011,01,12,15,39,7.20
2011,01,12,15,40,7.20
2011,01,12,15,41,7.20
2011,01,12,15,42,7.20
2011,01,12,15,43,7.20
2011,01,12,15,44,7.20
2011,01,12,15,45,7.20
2011,01,12,15,46,7.20
2011,01,12,15,47,7.20
2011,01,12,15,48,7.20
2011,01,12,15,49,7.20
2011,01,12,15,50,7.20
2011,01,12,15,51,7.20
2011,01,12,15,52,7.20
2011,01,12,15,53,7.20
2011,01,12,15,54,7.20
2011,01,12,15,55,7.20
2011,01,12,15,56,7.20
2011,01,12,15,57,7.20
2011,01,12,15,58,7.20
2011,01,12,15,59,7.20
2011,01,12,16,00,7.20
2011,01,12,16,01,7.20
2011,01,12,16,02,7.20
2011,01,12,16,03,7.20
2011,01,12,16,04,7.20
2011,01,12,16,05,7.20
2011,01,12,16,06,7.20
2011,01,12,18,38,6.80
2011,01,12,18,39,6.80
2011,01,12,18,40,6.80
2011,01,12,18,41,6.80
2011,01,12,18,42,6.80
2011,01,12,18,43,6.80
2011,01,12,18,44,6.80
2011,01,12,18,45,6.80
2011,01,12,18,46,6.80
2011,01,12,18,47,6.80
2011,01,12,18,48,6.80
2011,01,12,18,49,6.80
2011,01,12,18,50,6.80
2011,01,12,18,51,6.80
2011,01,12,18,52,6.80
2011,01,12,18,53,6.80
2011,01,12,18,54,6.80
2011,01,12,18,55,6.70
2011,01,12,18,56,6.70
2011,01,12,18,57,6.70
2011,01,12,18,58,6.70
2011,01,12,18,59,6.70
2011,01,12,19,00,6.70
2011,01,12,19,01,6.70
2011,01,12,19,02,6.70
2011,01,12,19,03,6.80
2011,01,12,19,04,6.80
2011,01,12,19,05,6.80
2011,01,12,19,06,6.80
2011,01,12,19,07,6.80
2011,01,12,19,08,6.80
2011,01,12,19,09,6.80
2011,01,12,19,10,6.80
2011,01,12,19,11,6.80
2011,01,12,19,12,6.80
2011,01,12,19,13,6.80
2011,01,12,19,14,6.80
2011,01,12,19,15,6.80
2011,01,12,19,16,6.80
2011,01,12,19,17,6.80
2011,01,12,19,18,6.80
2011,01,12,19,19,6.80
2011,01,12,19,20,6.80
2011,01,12,19,21,6.80
2011,01,12,19,22,6.80
2011,01,12,19,23,6.80
2011,01,12,19,24,6.80
2011,01,12,19,25,6.80
2011,01,12,19,26,6.80
2011,01,12,19,27,6.80
2011,01,12,19,28,6.80
2011,01,12,19,29,6.90
2011,01,12,19,30,6.90
2011,01,12,19,31,6.90
2011,01,12,19,32,6.90
2011,01,12,19,33,6.90
2011,01,12,19,34,6.90
2011,01,12,19,35,6.90
2011,01,12,19,36,6.90
2011,01,12,19,37,6.90
2011,01,12,19,38,6.90
2011,01,12,19,39,6.90
2011,01,12,19,40,6.90
2011,01,12,19,41,6.90
2011,01,12,19,42,6.90
2011,01,12,19,43,6.90
2011,01,12,19,44,6.90
2011,01,12,19,45,6.90
2011,01,12,19,46,6.90
2011,01,12,19,47,6.90
2011,01,12,19,48,6.90
2011,01,12,19,49,6.90
2011,01,12,19,50,6.90
2011,01,12,19,51,6.80
2011,01,12,19,52,6.80
2011,01,12,19,53,6.80
2011,01,12,19,54,6.80
2011,01,12,19,55,6.80
2011,01,12,19,56,6.80
2011,01,12,19,57,6.80
2011,01,12,19,58,6.80
2011,01,12,19,59,6.80
2011,01,12,20,00,6.80
2011,01,12,20,01,6.80
2011,01,12,20,02,6.80
2011,01,12,20,03,6.70
2011,01,12,20,04,6.80
2011,01,12,20,05,6.80
2011,01,12,20,06,6.80
2011,01,12,20,07,6.80
2011,01,12,20,08,6.80
2011,01,12,20,09,6.80
2011,01,12,20,10,6.80
2011,01,12,20,11,6.80
2011,01,12,20,12,6.70
2011,01,12,20,13,6.70
2011,01,12,20,14,6.60
2011,01,12,20,15,6.60
2011,01,12,20,16,6.60
2011,01,12,20,17,6.60
2011,01,12,20,18,6.60
2011,01,12,20,19,6.60
2011,01,12,20,20,6.60
2011,01,12,20,21,6.50
2011,01,12,20,22,6.40
2011,01,12,20,23,6.40
2011,01,12,20,24,6.40
2011,01,12,20,25,6.40
2011,01,12,20,26,6.40
2011,01,12,20,27,6.40
2011,01,12,20,28,6.40
2011,01,12,20,29,6.40
2011,01,12,20,30,6.40
2011,01,12,20,31,6.40
2011,01,12,20,32,6.40
2011,01,12,20,33,6.40
2011,01,12,20,34,6.40
2011,01,12,20,35,6.40
2011,01,12,20,36,6.40
2011,01,12,20,37,6.40